Tracking 23731 objects as of 27-Sep-2021
HD Live streaming from Space Station
objects crossing your sky now

BEIDOU 3M5

Track BEIDOU 3M5 now!
BEIDOU 3M5 is classified as:


NORAD ID: 43207
Int'l Code: 2018-018A
Perigee: 21,520.8 km
Apogee: 21,549.4 km
Inclination: 55.4 °
Period: 773.2 minutes
Semi major axis: 27906 km
RCS: Unknown
Launch date: February 12, 2018
Source: People's Republic of China (PRC)
Launch site: Xichang Space Center, China (XSC)
aabbcc
Your satellite tracking list
Your tracking list is empty




NASA's NSSDC Master Catalog

Two Line Element Set (TLE):
1 43207U 18018A   21268.43570776  .00000002  00000-0  00000-0 0  9994
2 43207  55.3666 120.7004 0005130 356.7612   3.3240  1.86231685 24606
Source of the keplerian elements: AFSPC